| time (UTC) | temp F | wind direction | speed MPH | gust MPH | rain 1hr in | rain 24hr in | rain mn in | humidity % | barometer mb |
| 20260509200314 | 80 | 6 | 4.0 | 6.0 | 0.00 | 0.00 | 0.00 | 59 | 1016.4 |
| 20260509195810 | 80 | 9 | 4.0 | 6.0 | 0.00 | 0.00 | 0.00 | 58 | 1016.9 |
| 20260509195306 | 80 | 15 | 3.0 | 5.0 | 0.00 | 0.00 | 0.00 | 58 | 1016.4 |
| 20260509194805 | 81 | 325 | 3.0 | 3.0 | 0.00 | 0.00 | 0.00 | 57 | 1016.3 |
| 20260509194301 | 81 | 62 | 2.0 | 3.0 | 0.00 | 0.00 | 0.00 | 57 | 1016.7 |
| 20260509193758 | 82 | 36 | 1.0 | 1.0 | 0.00 | 0.00 | 0.00 | 56 | 1016.2 |
| 20260509193258 | 81 | 24 | 1.0 | 2.0 | 0.00 | 0.00 | 0.00 | 57 | 1016.3 |
| 20260509192754 | 81 | 317 | 7.0 | 9.0 | 0.00 | 0.00 | 0.00 | 57 | 1016.3 |
| 20260509192250 | 81 | 301 | 9.0 | 13.0 | 0.00 | 0.00 | 0.00 | 57 | 1016.2 |
| 20260509191745 | 81 | 126 | 3.0 | 3.0 | 0.00 | 0.00 | 0.00 | 58 | 1016.2 |
| 20260509191242 | 80 | 356 | 0.0 | 1.0 | 0.00 | 0.00 | 0.00 | 60 | 1016.3 |
| 20260509190738 | 80 | 343 | 3.0 | 5.0 | 0.00 | 0.00 | 0.00 | 61 | 1016.1 |
| 20260509190235 | 80 | 26 | 3.0 | 3.0 | 0.00 | 0.00 | 0.00 | 61 | 1016.2 |
| 20260509185732 | 80 | 119 | 2.0 | 2.0 | 0.00 | 0.00 | 0.00 | 61 | 1016.3 |
| 20260509185229 | 80 | 341 | 5.0 | 7.0 | 0.00 | 0.00 | 0.00 | 61 | 1016.3 |
| 20260509184726 | 80 | 236 | 6.0 | 9.0 | 0.00 | 0.00 | 0.00 | 61 | 1016.2 |
| 20260509184224 | 80 | 0 | 7.0 | 9.0 | 0.00 | 0.00 | 0.00 | 61 | 1016.4 |
| 20260509183720 | 80 | 2 | 3.0 | 5.0 | 0.00 | 0.00 | 0.00 | 61 | 1016.3 |
| 20260509183215 | 80 | 46 | 8.0 | 9.0 | 0.00 | 0.00 | 0.00 | 61 | 1016.2 |
| 20260509182711 | 80 | 7 | 8.0 | 13.0 | 0.00 | 0.00 | 0.00 | 61 | 1016.4 |
| 20260509182209 | 80 | 319 | 4.0 | 6.0 | 0.00 | 0.00 | 0.00 | 62 | 1016.1 |
| 20260509181706 | 80 | 280 | 7.0 | 8.0 | 0.00 | 0.00 | 0.00 | 62 | 1016.1 |
| 20260509181203 | 80 | 128 | 3.0 | 3.0 | 0.00 | 0.00 | 0.00 | 62 | 1016.4 |
| 20260509180700 | 80 | 291 | 7.0 | 11.0 | 0.00 | 0.00 | 0.00 | 62 | 1016.4 |
| 20260509180156 | 79 | 329 | 7.0 | 10.0 | 0.00 | 0.00 | 0.00 | 62 | 1016.3 |
| 20260509175653 | 80 | 38 | 5.0 | 8.0 | 0.00 | 0.00 | 0.00 | 62 | 1016.3 |
| 20260509175149 | 80 | 353 | 4.0 | 5.0 | 0.00 | 0.00 | 0.00 | 62 | 1016.3 |
| 20260509174645 | 80 | 302 | 3.0 | 3.0 | 0.00 | 0.00 | 0.00 | 61 | 1016.3 |
| 20260509174140 | 80 | 301 | 4.0 | 6.0 | 0.00 | 0.00 | 0.00 | 62 | 1016.3 |
| 20260509173636 | 79 | 322 | 11.0 | 11.0 | 0.00 | 0.00 | 0.00 | 62 | 1016.4 |
| 20260509173132 | 79 | 148 | 3.0 | 5.0 | 0.00 | 0.00 | 0.00 | 62 | 1016.3 |
| 20260509172629 | 79 | 0 | 8.0 | 11.0 | 0.00 | 0.00 | 0.00 | 62 | 1016.8 |
| 20260509172125 | 79 | 349 | 7.0 | 9.0 | 0.00 | 0.00 | 0.00 | 62 | 1016.7 |
| 20260509171621 | 79 | 344 | 12.0 | 17.0 | 0.00 | 0.00 | 0.00 | 61 | 1016.8 |
| 20260509171117 | 80 | 340 | 2.0 | 3.0 | 0.00 | 0.00 | 0.00 | 61 | 1016.8 |
| 20260509170614 | 79 | 307 | 7.0 | 10.0 | 0.00 | 0.00 | 0.00 | 61 | 1016.7 |
| 20260509170110 | 79 | 26 | 3.0 | 6.0 | 0.00 | 0.00 | 0.00 | 61 | 1016.8 |
| 20260509165608 | 79 | 2 | 6.0 | 8.0 | 0.00 | 0.00 | 0.00 | 61 | 1016.7 |
| 20260509165104 | 79 | 306 | 5.0 | 7.0 | 0.00 | 0.00 | 0.00 | 61 | 1016.7 |
| 20260509164600 | 79 | 2 | 9.0 | 10.0 | 0.00 | 0.00 | 0.00 | 61 | 1016.8 |
| 20260509164055 | 80 | 351 | 9.0 | 11.0 | 0.00 | 0.00 | 0.00 | 62 | 1017.0 |
| 20260509163554 | 80 | 354 | 3.0 | 5.0 | 0.00 | 0.00 | 0.00 | 61 | 1017.1 |
| 20260509163049 | 80 | 329 | 7.0 | 9.0 | 0.00 | 0.00 | 0.00 | 61 | 1017.0 |
| 20260509162546 | 80 | 329 | 11.0 | 16.0 | 0.00 | 0.00 | 0.00 | 61 | 1017.0 |
| 20260509162042 | 79 | 301 | 17.0 | 20.0 | 0.00 | 0.00 | 0.00 | 62 | 1017.1 |
| 20260509161538 | 80 | 23 | 3.0 | 5.0 | 0.00 | 0.00 | 0.00 | 61 | 1017.1 |
| 20260509161033 | 79 | 315 | 7.0 | 10.0 | 0.00 | 0.00 | 0.00 | 62 | 1017.2 |
| 20260509160530 | 80 | 337 | 9.0 | 11.0 | 0.00 | 0.00 | 0.00 | 62 | 1017.1 |
| 20260509160025 | 79 | 141 | 3.0 | 3.0 | 0.00 | 0.00 | 0.00 | 61 | 1017.2 |
| 20260509155521 | 79 | 339 | 9.0 | 9.0 | 0.00 | 0.00 | 0.00 | 62 | 1016.9 |
| 20260509155018 | 79 | 313 | 9.0 | 14.0 | 0.00 | 0.00 | 0.00 | 62 | 1017.2 |
| 20260509154514 | 80 | 320 | 6.0 | 8.0 | 0.00 | 0.00 | 0.00 | 62 | 1017.2 |
| 20260509154012 | 79 | 349 | 3.0 | 5.0 | 0.00 | 0.00 | 0.00 | 62 | 1017.1 |
| 20260509153509 | 79 | 346 | 7.0 | 9.0 | 0.00 | 0.00 | 0.00 | 62 | 1017.2 |
| 20260509153006 | 79 | 347 | 6.0 | 8.0 | 0.00 | 0.00 | 0.00 | 62 | 1017.1 |
| 20260509152501 | 79 | 351 | 8.0 | 9.0 | 0.00 | 0.00 | 0.00 | 62 | 1017.5 |
| 20260509151958 | 79 | 68 | 4.0 | 6.0 | 0.00 | 0.00 | 0.00 | 62 | 1017.5 |
| 20260509151454 | 79 | 346 | 3.0 | 5.0 | 0.00 | 0.00 | 0.00 | 63 | 1017.9 |
| 20260509150953 | 78 | 355 | 5.0 | 8.0 | 0.00 | 0.00 | 0.00 | 64 | 1017.6 |
| 20260509150449 | 78 | 91 | 10.0 | 13.0 | 0.00 | 0.00 | 0.00 | 63 | 1017.9 |
| 20260509145942 | 78 | 0 | 6.0 | 9.0 | 0.00 | 0.00 | 0.00 | 64 | 1017.9 |
| 20260509145437 | 78 | 266 | 4.0 | 6.0 | 0.00 | 0.00 | 0.00 | 64 | 1018.1 |
| 20260509144932 | 78 | 6 | 8.0 | 10.0 | 0.00 | 0.00 | 0.00 | 64 | 1018.1 |
| 20260509144430 | 78 | 62 | 3.0 | 6.0 | 0.00 | 0.00 | 0.00 | 65 | 1018.0 |
| 20260509143927 | 77 | 352 | 1.0 | 1.0 | 0.00 | 0.00 | 0.00 | 66 | 1018.1 |
| 20260509143424 | 77 | 198 | 5.0 | 6.0 | 0.00 | 0.00 | 0.00 | 65 | 1018.7 |
| 20260509142920 | 77 | 337 | 7.0 | 9.0 | 0.00 | 0.00 | 0.00 | 66 | 1018.5 |
| 20260509142417 | 77 | 321 | 4.0 | 5.0 | 0.00 | 0.00 | 0.00 | 66 | 1018.5 |
| 20260509141912 | 76 | 63 | 5.0 | 6.0 | 0.00 | 0.00 | 0.00 | 67 | 1018.4 |
| 20260509141410 | 76 | 335 | 3.0 | 6.0 | 0.00 | 0.00 | 0.00 | 67 | 1018.5 |
| 20260509140906 | 76 | 2 | 4.0 | 5.0 | 0.00 | 0.00 | 0.00 | 67 | 1018.5 |
| 20260509140403 | 76 | 343 | 1.0 | 1.0 | 0.00 | 0.00 | 0.00 | 67 | 1018.6 |
| 20260509135901 | 76 | 356 | 3.0 | 3.0 | 0.00 | 0.00 | 0.00 | 67 | 1018.6 |
| 20260509135358 | 76 | 4 | 3.0 | 7.0 | 0.00 | 0.00 | 0.00 | 67 | 1018.5 |
| 20260509134855 | 75 | 328 | 2.0 | 3.0 | 0.00 | 0.00 | 0.00 | 68 | 1018.6 |
| 20260509134353 | 75 | 292 | 2.0 | 2.0 | 0.00 | 0.00 | 0.00 | 69 | 1018.7 |
| 20260509133849 | 74 | 41 | 4.0 | 6.0 | 0.00 | 0.00 | 0.00 | 70 | 1018.5 |
| 20260509133346 | 74 | 300 | 5.0 | 6.0 | 0.00 | 0.00 | 0.00 | 70 | 1018.6 |
| 20260509132845 | 74 | 340 | 6.0 | 7.0 | 0.00 | 0.00 | 0.00 | 71 | 1018.9 |
| 20260509132343 | 74 | 4 | 5.0 | 7.0 | 0.00 | 0.00 | 0.00 | 70 | 1018.8 |
| 20260509131840 | 73 | 317 | 4.0 | 6.0 | 0.00 | 0.00 | 0.00 | 71 | 1019.0 |
| 20260509131336 | 74 | 5 | 8.0 | 9.0 | 0.00 | 0.00 | 0.00 | 71 | 1019.0 |
| 20260509130833 | 74 | 10 | 3.0 | 3.0 | 0.00 | 0.00 | 0.00 | 71 | 1019.0 |
| 20260509130328 | 74 | 353 | 3.0 | 5.0 | 0.00 | 0.00 | 0.00 | 71 | 1018.9 |
| 20260509125825 | 74 | 254 | 3.0 | 3.0 | 0.00 | 0.00 | 0.00 | 69 | 1018.9 |
| 20260509125322 | 74 | 350 | 3.0 | 3.0 | 0.00 | 0.00 | 0.00 | 69 | 1019.0 |
| 20260509124818 | 74 | 351 | 5.0 | 6.0 | 0.00 | 0.00 | 0.00 | 69 | 1018.7 |
| 20260509124315 | 74 | 213 | 2.0 | 3.0 | 0.00 | 0.00 | 0.00 | 70 | 1018.8 |
| 20260509123814 | 74 | 72 | 7.0 | 9.0 | 0.00 | 0.00 | 0.00 | 70 | 1018.5 |
| 20260509123310 | 73 | 316 | 7.0 | 9.0 | 0.00 | 0.00 | 0.00 | 70 | 1018.5 |
| 20260509122806 | 73 | 336 | 2.0 | 5.0 | 0.00 | 0.00 | 0.00 | 71 | 1018.5 |
| 20260509122306 | 74 | 329 | 3.0 | 3.0 | 0.00 | 0.00 | 0.00 | 70 | 1018.3 |
| 20260509121800 | 73 | 2 | 5.0 | 7.0 | 0.00 | 0.00 | 0.00 | 71 | 1018.7 |
| 20260509121257 | 73 | 46 | 5.0 | 6.0 | 0.00 | 0.00 | 0.00 | 71 | 1018.4 |
| 20260509120755 | 73 | 294 | 3.0 | 5.0 | 0.00 | 0.00 | 0.00 | 70 | 1018.3 |
| 20260509120252 | 73 | 3 | 3.0 | 5.0 | 0.00 | 0.00 | 0.00 | 71 | 1018.3 |
| 20260509115751 | 73 | 3 | 4.0 | 5.0 | 0.00 | 0.00 | 0.00 | 72 | 1018.3 |
| 20260509115247 | 73 | 355 | 2.0 | 3.0 | 0.00 | 0.00 | 0.00 | 71 | 1018.0 |
| 20260509114745 | 73 | 355 | 5.0 | 6.0 | 0.00 | 0.00 | 0.00 | 72 | 1018.2 |
| 20260509114244 | 73 | 8 | 3.0 | 3.0 | 0.00 | 0.00 | 0.00 | 72 | 1018.3 |
| 20260509113742 | 72 | 23 | 2.0 | 2.0 | 0.00 | 0.00 | 0.00 | 72 | 1018.2 |
| 20260509113239 | 72 | 22 | 2.0 | 3.0 | 0.00 | 0.00 | 0.00 | 72 | 1018.0 |
| 20260509112736 | 72 | 313 | 3.0 | 3.0 | 0.00 | 0.00 | 0.00 | 73 | 1018.1 |
| 20260509112233 | 72 | 290 | 4.0 | 5.0 | 0.00 | 0.00 | 0.00 | 73 | 1017.7 |
| 20260509111730 | 72 | 278 | 2.0 | 3.0 | 0.00 | 0.00 | 0.00 | 73 | 1018.1 |
| 20260509111226 | 71 | 326 | 9.0 | 9.0 | 0.00 | 0.00 | 0.00 | 73 | 1017.7 |
| 20260509110724 | 71 | 272 | 5.0 | 6.0 | 0.00 | 0.00 | 0.00 | 73 | 1018.0 |
| 20260509110221 | 72 | 282 | 4.0 | 7.0 | 0.00 | 0.00 | 0.00 | 73 | 1017.2 |
| 20260509105719 | 72 | 322 | 6.0 | 7.0 | 0.00 | 0.00 | 0.00 | 73 | 1017.3 |
| 20260509105216 | 72 | 299 | 3.0 | 3.0 | 0.00 | 0.00 | 0.00 | 73 | 1017.1 |
| 20260509104713 | 71 | 13 | 3.0 | 5.0 | 0.00 | 0.00 | 0.00 | 73 | 1017.0 |
| 20260509104210 | 71 | 327 | 2.0 | 2.0 | 0.00 | 0.00 | 0.00 | 74 | 1017.1 |
| 20260509103708 | 71 | 12 | 3.0 | 5.0 | 0.00 | 0.00 | 0.00 | 74 | 1017.0 |
| 20260509103205 | 71 | 16 | 1.0 | 1.0 | 0.00 | 0.00 | 0.00 | 73 | 1016.9 |
| 20260509102703 | 71 | 76 | 2.0 | 3.0 | 0.00 | 0.00 | 0.00 | 73 | 1016.8 |
| 20260509102200 | 72 | 303 | 10.0 | 11.0 | 0.00 | 0.00 | 0.00 | 72 | 1016.6 |
| 20260509101656 | 73 | 269 | 7.0 | 8.0 | 0.00 | 0.00 | 0.00 | 71 | 1016.4 |
| 20260509101152 | 74 | 147 | 6.0 | 9.0 | 0.00 | 0.00 | 0.00 | 67 | 1016.3 |
| 20260509100650 | 74 | 344 | 8.0 | 10.0 | 0.00 | 0.00 | 0.00 | 67 | 1016.3 |
| 20260509100147 | 74 | 322 | 3.0 | 3.0 | 0.00 | 0.00 | 0.00 | 67 | 1015.9 |
| 20260509095643 | 74 | 332 | 7.0 | 9.0 | 0.00 | 0.00 | 0.00 | 67 | 1015.9 |
| 20260509095141 | 74 | 13 | 7.0 | 8.0 | 0.00 | 0.00 | 0.00 | 67 | 1015.9 |
| 20260509094637 | 74 | 326 | 3.0 | 5.0 | 0.00 | 0.00 | 0.00 | 67 | 1015.5 |
| 20260509094134 | 74 | 349 | 3.0 | 3.0 | 0.00 | 0.00 | 0.00 | 67 | 1015.7 |
| 20260509093633 | 74 | 28 | 4.0 | 5.0 | 0.00 | 0.00 | 0.00 | 67 | 1015.3 |
| 20260509093129 | 74 | 97 | 6.0 | 11.0 | 0.00 | 0.00 | 0.00 | 67 | 1015.5 |
| 20260509092627 | 74 | 335 | 9.0 | 14.0 | 0.00 | 0.00 | 0.00 | 67 | 1015.5 |
| 20260509092126 | 74 | 43 | 3.0 | 3.0 | 0.00 | 0.00 | 0.00 | 67 | 1015.4 |
| 20260509091624 | 74 | 14 | 6.0 | 8.0 | 0.00 | 0.00 | 0.00 | 67 | 1015.6 |
| 20260509091119 | 74 | 9 | 3.0 | 6.0 | 0.00 | 0.00 | 0.00 | 67 | 1015.4 |
| 20260509090617 | 74 | 0 | 4.0 | 5.0 | 0.00 | 0.00 | 0.00 | 68 | 1015.3 |
| 20260509090115 | 74 | 26 | 5.0 | 9.0 | 0.00 | 0.00 | 0.00 | 68 | 1015.3 |
| 20260509085612 | 74 | 320 | 9.0 | 11.0 | 0.00 | 0.00 | 0.00 | 68 | 1014.9 |
| 20260509085108 | 74 | 312 | 4.0 | 6.0 | 0.00 | 0.00 | 0.00 | 67 | 1014.8 |
| 20260509084605 | 74 | 328 | 5.0 | 15.0 | 0.00 | 0.00 | 0.00 | 68 | 1014.9 |
| 20260509084102 | 74 | 7 | 5.0 | 6.0 | 0.00 | 0.00 | 0.00 | 68 | 1015.0 |
| 20260509083559 | 74 | 7 | 3.0 | 8.0 | 0.00 | 0.00 | 0.00 | 68 | 1014.7 |
| 20260509083055 | 74 | 306 | 3.0 | 6.0 | 0.00 | 0.00 | 0.00 | 68 | 1014.4 |
| 20260509082553 | 74 | 54 | 3.0 | 9.0 | 0.00 | 0.00 | 0.00 | 68 | 1014.8 |
| 20260509082050 | 74 | 356 | 4.0 | 6.0 | 0.00 | 0.00 | 0.00 | 68 | 1014.4 |
| 20260509081547 | 74 | 41 | 3.0 | 8.0 | 0.00 | 0.00 | 0.00 | 68 | 1014.7 |
| 20260509081044 | 74 | 38 | 8.0 | 15.0 | 0.00 | 0.00 | 0.00 | 68 | 1014.8 |
| 20260509080542 | 74 | 1 | 12.0 | 17.0 | 0.00 | 0.00 | 0.00 | 68 | 1014.8 |
| 20260509080040 | 74 | 329 | 3.0 | 7.0 | 0.00 | 0.00 | 0.00 | 68 | 1014.8 |
| 20260509075537 | 74 | 15 | 11.0 | 16.0 | 0.00 | 0.00 | 0.00 | 68 | 1014.9 |
| 20260509075035 | 74 | 16 | 8.0 | 13.0 | 0.00 | 0.00 | 0.00 | 68 | 1014.8 |
| 20260509074532 | 74 | 342 | 5.0 | 6.0 | 0.00 | 0.00 | 0.00 | 68 | 1014.8 |
| 20260509074028 | 74 | 346 | 4.0 | 6.0 | 0.00 | 0.00 | 0.00 | 68 | 1014.8 |
| 20260509073525 | 74 | 343 | 8.0 | 10.0 | 0.00 | 0.00 | 0.00 | 68 | 1014.7 |
| 20260509073021 | 74 | 356 | 3.0 | 3.0 | 0.00 | 0.00 | 0.00 | 68 | 1014.8 |
| 20260509072518 | 74 | 15 | 9.0 | 11.0 | 0.00 | 0.00 | 0.00 | 68 | 1014.9 |
| 20260509072015 | 74 | 301 | 12.0 | 20.0 | 0.00 | 0.00 | 0.00 | 68 | 1014.9 |
| 20260509071511 | 74 | 358 | 7.0 | 9.0 | 0.00 | 0.00 | 0.00 | 68 | 1014.7 |
| 20260509071009 | 74 | 111 | 8.0 | 10.0 | 0.00 | 0.00 | 0.00 | 68 | 1015.0 |
| 20260509070506 | 74 | 279 | 11.0 | 15.0 | 0.00 | 0.00 | 0.00 | 68 | 1014.8 |
| 20260509070002 | 74 | 359 | 7.0 | 9.0 | 0.00 | 0.00 | 0.00 | 69 | 1014.9 |
| 20260509065457 | 73 | 344 | 3.0 | 6.0 | 0.00 | 0.00 | 0.00 | 69 | 1015.0 |
| 20260509064954 | 73 | 8 | 6.0 | 8.0 | 0.00 | 0.00 | 0.00 | 69 | 1014.8 |
| 20260509064452 | 73 | 323 | 11.0 | 16.0 | 0.00 | 0.00 | 0.00 | 69 | 1015.3 |
| 20260509063950 | 73 | 16 | 6.0 | 9.0 | 0.00 | 0.00 | 0.00 | 69 | 1014.8 |
| 20260509063445 | 73 | 355 | 7.0 | 9.0 | 0.00 | 0.00 | 0.00 | 70 | 1014.9 |
| 20260509062942 | 73 | 0 | 5.0 | 7.0 | 0.00 | 0.00 | 0.00 | 69 | 1014.9 |
| 20260509062439 | 73 | 111 | 5.0 | 7.0 | 0.00 | 0.00 | 0.00 | 69 | 1014.8 |
| 20260509061937 | 74 | 342 | 4.0 | 6.0 | 0.00 | 0.00 | 0.00 | 69 | 1015.3 |
| 20260509061434 | 74 | 20 | 6.0 | 8.0 | 0.00 | 0.00 | 0.00 | 69 | 1014.9 |
| 20260509060931 | 74 | 99 | 3.0 | 5.0 | 0.00 | 0.00 | 0.00 | 69 | 1015.0 |
| 20260509060429 | 74 | 3 | 9.0 | 11.0 | 0.00 | 0.00 | 0.00 | 69 | 1015.1 |
| 20260509055923 | 74 | 3 | 4.0 | 7.0 | 0.00 | 0.00 | 0.00 | 69 | 1015.0 |
| 20260509055419 | 74 | 111 | 8.0 | 13.0 | 0.00 | 0.00 | 0.00 | 69 | 1015.1 |
| 20260509054916 | 74 | 7 | 5.0 | 7.0 | 0.00 | 0.00 | 0.00 | 69 | 1015.0 |
| 20260509054413 | 73 | 359 | 4.0 | 5.0 | 0.00 | 0.00 | 0.00 | 69 | 1015.3 |
| 20260509053911 | 74 | 350 | 3.0 | 3.0 | 0.00 | 0.00 | 0.00 | 69 | 1015.1 |
| 20260509053408 | 74 | 10 | 2.0 | 5.0 | 0.00 | 0.00 | 0.00 | 69 | 1015.3 |
| 20260509052906 | 74 | 13 | 5.0 | 6.0 | 0.00 | 0.00 | 0.00 | 69 | 1015.1 |
| 20260509052403 | 74 | 355 | 3.0 | 3.0 | 0.00 | 0.00 | 0.00 | 69 | 1015.4 |
| 20260509051901 | 74 | 15 | 3.0 | 3.0 | 0.00 | 0.00 | 0.00 | 69 | 1015.3 |
| 20260509051359 | 74 | 138 | 6.0 | 8.0 | 0.00 | 0.00 | 0.00 | 69 | 1015.3 |
| 20260509050855 | 74 | 8 | 7.0 | 10.0 | 0.00 | 0.00 | 0.00 | 69 | 1015.3 |
| 20260509050352 | 74 | 50 | 6.0 | 8.0 | 0.00 | 0.00 | 0.00 | 70 | 1015.0 |
| 20260509045849 | 74 | 8 | 4.0 | 6.0 | 0.00 | 0.00 | 0.00 | 70 | 1015.5 |
| 20260509045346 | 73 | 4 | 8.0 | 11.0 | 0.00 | 0.00 | 0.00 | 70 | 1015.1 |
| 20260509044843 | 73 | 136 | 6.0 | 8.0 | 0.00 | 0.00 | 0.00 | 70 | 1014.9 |
| 20260509044341 | 73 | 2 | 4.0 | 6.0 | 0.00 | 0.00 | 0.00 | 70 | 1015.0 |
| 20260509043837 | 74 | 155 | 4.0 | 7.0 | 0.00 | 0.00 | 0.00 | 70 | 1015.0 |
| 20260509043333 | 73 | 14 | 1.0 | 5.0 | 0.00 | 0.00 | 0.00 | 70 | 1015.1 |
| 20260509042829 | 73 | 104 | 5.0 | 8.0 | 0.00 | 0.00 | 0.00 | 71 | 1015.1 |
| 20260509042326 | 73 | 6 | 7.0 | 10.0 | 0.00 | 0.00 | 0.00 | 72 | 1015.4 |
| 20260509041822 | 73 | 238 | 3.0 | 5.0 | 0.00 | 0.00 | 0.00 | 72 | 1015.5 |
| 20260509041319 | 73 | 340 | 8.0 | 11.0 | 0.00 | 0.00 | 0.00 | 72 | 1015.6 |
| 20260509040818 | 73 | 44 | 4.0 | 5.0 | 0.00 | 0.00 | 0.00 | 73 | 1015.3 |
| 20260509040315 | 73 | 356 | 2.0 | 2.0 | 0.00 | 0.00 | 0.00 | 73 | 1015.6 |
| 20260509035811 | 73 | 5 | 8.0 | 10.0 | 0.00 | 0.00 | 0.00 | 73 | 1015.5 |
| 20260509035309 | 73 | 347 | 4.0 | 5.0 | 0.00 | 0.00 | 0.00 | 73 | 1015.4 |
| 20260509034805 | 72 | 51 | 1.0 | 1.0 | 0.00 | 0.00 | 0.00 | 74 | 1015.5 |
| 20260509034303 | 73 | 154 | 4.0 | 6.0 | 0.00 | 0.00 | 0.00 | 73 | 1015.1 |
| 20260509033759 | 73 | 329 | 4.0 | 5.0 | 0.00 | 0.00 | 0.00 | 73 | 1015.4 |
| 20260509033257 | 73 | 109 | 3.0 | 3.0 | 0.00 | 0.00 | 0.00 | 73 | 1015.4 |
| 20260509032754 | 73 | 359 | 5.0 | 7.0 | 0.00 | 0.00 | 0.00 | 73 | 1015.4 |
| 20260509032251 | 73 | 356 | 3.0 | 6.0 | 0.00 | 0.00 | 0.00 | 73 | 1015.1 |
| 20260509031748 | 73 | 76 | 6.0 | 7.0 | 0.00 | 0.00 | 0.00 | 73 | 1015.5 |
| 20260509031246 | 73 | 339 | 2.0 | 3.0 | 0.00 | 0.00 | 0.00 | 73 | 1015.1 |
| 20260509030743 | 73 | 22 | 3.0 | 3.0 | 0.00 | 0.00 | 0.00 | 73 | 1015.3 |
| 20260509030241 | 73 | 92 | 3.0 | 3.0 | 0.00 | 0.00 | 0.00 | 73 | 1015.0 |
| 20260509025738 | 73 | 30 | 3.0 | 6.0 | 0.00 | 0.00 | 0.00 | 73 | 1015.3 |
| 20260509025233 | 73 | 6 | 3.0 | 3.0 | 0.00 | 0.00 | 0.00 | 73 | 1015.4 |
| 20260509024728 | 73 | 24 | 5.0 | 7.0 | 0.00 | 0.00 | 0.00 | 73 | 1015.3 |
| 20260509024224 | 73 | 90 | 3.0 | 6.0 | 0.00 | 0.00 | 0.00 | 73 | 1015.4 |
| 20260509023722 | 73 | 359 | 3.0 | 5.0 | 0.00 | 0.00 | 0.00 | 73 | 1015.5 |
| 20260509023219 | 73 | 1 | 5.0 | 6.0 | 0.00 | 0.00 | 0.00 | 73 | 1015.4 |
| 20260509022715 | 73 | 355 | 2.0 | 5.0 | 0.00 | 0.00 | 0.00 | 73 | 1015.3 |
| 20260509022213 | 73 | 347 | 3.0 | 5.0 | 0.00 | 0.00 | 0.00 | 73 | 1015.4 |
| 20260509021710 | 73 | 4 | 5.0 | 8.0 | 0.00 | 0.00 | 0.00 | 72 | 1015.4 |
| 20260509021207 | 73 | 30 | 3.0 | 5.0 | 0.00 | 0.00 | 0.00 | 72 | 1015.6 |
| 20260509020705 | 73 | 350 | 3.0 | 5.0 | 0.00 | 0.00 | 0.00 | 73 | 1015.7 |
| 20260509020202 | 73 | 28 | 3.0 | 3.0 | 0.00 | 0.00 | 0.00 | 73 | 1015.5 |
| 20260509015700 | 73 | 347 | 2.0 | 2.0 | 0.00 | 0.00 | 0.00 | 73 | 1015.5 |
| 20260509015158 | 73 | 51 | 4.0 | 6.0 | 0.00 | 0.00 | 0.00 | 72 | 1015.5 |
| 20260509014654 | 73 | 75 | 6.0 | 8.0 | 0.00 | 0.00 | 0.00 | 73 | 1015.4 |
| 20260509014151 | 73 | 45 | 6.0 | 9.0 | 0.00 | 0.00 | 0.00 | 72 | 1015.4 |
| 20260509013648 | 74 | 2 | 4.0 | 7.0 | 0.00 | 0.00 | 0.00 | 72 | 1015.6 |
| 20260509013143 | 74 | 346 | 5.0 | 7.0 | 0.00 | 0.00 | 0.00 | 72 | 1015.4 |
| 20260509012640 | 74 | 69 | 5.0 | 7.0 | 0.00 | 0.00 | 0.00 | 71 | 1015.4 |
| 20260509012137 | 74 | 80 | 3.0 | 5.0 | 0.00 | 0.00 | 0.00 | 71 | 1015.4 |
| 20260509011635 | 74 | 277 | 1.0 | 1.0 | 0.00 | 0.00 | 0.00 | 71 | 1015.3 |
| 20260509011132 | 75 | 21 | 7.0 | 9.0 | 0.00 | 0.00 | 0.00 | 70 | 1015.5 |
| 20260509010630 | 75 | 316 | 2.0 | 3.0 | 0.00 | 0.00 | 0.00 | 70 | 1015.4 |
| 20260509010126 | 75 | 5 | 3.0 | 5.0 | 0.00 | 0.00 | 0.00 | 70 | 1015.5 |
| 20260509005624 | 75 | 61 | 2.0 | 2.0 | 0.00 | 0.00 | 0.00 | 69 | 1015.5 |
| 20260509005119 | 75 | 24 | 5.0 | 8.0 | 0.00 | 0.00 | 0.00 | 70 | 1015.6 |
| 20260509004616 | 75 | 74 | 6.0 | 9.0 | 0.00 | 0.00 | 0.00 | 69 | 1015.7 |
| 20260509004113 | 75 | 21 | 3.0 | 6.0 | 0.00 | 0.00 | 0.00 | 69 | 1015.4 |
| 20260509003611 | 75 | 358 | 5.0 | 7.0 | 0.00 | 0.00 | 0.00 | 68 | 1015.3 |
| 20260509003108 | 76 | 81 | 9.0 | 13.0 | 0.00 | 0.00 | 0.00 | 67 | 1015.3 |
| 20260509002606 | 76 | 97 | 3.0 | 5.0 | 0.00 | 0.00 | 0.00 | 66 | 1015.4 |
| 20260509002103 | 76 | 112 | 4.0 | 8.0 | 0.00 | 0.00 | 0.00 | 66 | 1015.4 |
| 20260509001600 | 77 | 334 | 7.0 | 10.0 | 0.00 | 0.00 | 0.00 | 65 | 1015.4 |
| 20260509001056 | 77 | 12 | 5.0 | 9.0 | 0.00 | 0.00 | 0.00 | 64 | 1015.1 |
| 20260509000555 | 77 | 115 | 4.0 | 6.0 | 0.00 | 0.00 | 0.00 | 63 | 1015.1 |
| 20260509000050 | 77 | 352 | 3.0 | 5.0 | 0.00 | 0.00 | 0.00 | 61 | 1015.1 |
| 20260508235548 | 77 | 79 | 3.0 | 5.0 | 0.00 | 0.00 | 0.00 | 60 | 1015.0 |
| 20260508235044 | 77 | 107 | 5.0 | 8.0 | 0.00 | 0.00 | 0.00 | 63 | 1015.0 |
| 20260508234542 | 78 | 281 | 6.0 | 7.0 | 0.00 | 0.00 | 0.00 | 62 | 1015.0 |
| 20260508234038 | 78 | 357 | 9.0 | 13.0 | 0.00 | 0.00 | 0.00 | 63 | 1015.1 |
| 20260508233538 | 78 | 21 | 3.0 | 3.0 | 0.00 | 0.00 | 0.00 | 65 | 1015.6 |
| 20260508233035 | 78 | 22 | 5.0 | 6.0 | 0.00 | 0.00 | 0.00 | 63 | 1015.3 |
| 20260508232531 | 78 | 4 | 3.0 | 3.0 | 0.00 | 0.00 | 0.00 | 64 | 1015.5 |
| 20260508232029 | 78 | 300 | 1.0 | 2.0 | 0.00 | 0.00 | 0.00 | 64 | 1015.3 |
| 20260508231526 | 78 | 359 | 1.0 | 3.0 | 0.00 | 0.00 | 0.00 | 64 | 1015.1 |
| 20260508231023 | 78 | 102 | 4.0 | 5.0 | 0.00 | 0.00 | 0.00 | 64 | 1014.9 |
| 20260508230520 | 78 | 14 | 1.0 | 2.0 | 0.00 | 0.00 | 0.00 | 64 | 1015.4 |
| 20260508230017 | 78 | 88 | 2.0 | 2.0 | 0.00 | 0.00 | 0.00 | 65 | 1015.3 |
| 20260508225514 | 78 | 23 | 3.0 | 3.0 | 0.00 | 0.00 | 0.00 | 65 | 1015.4 |
| 20260508225010 | 78 | 3 | 1.0 | 3.0 | 0.00 | 0.00 | 0.00 | 64 | 1015.6 |
| 20260508224508 | 78 | 9 | 3.0 | 3.0 | 0.00 | 0.00 | 0.00 | 63 | 1015.5 |
| 20260508224005 | 78 | 31 | 2.0 | 2.0 | 0.00 | 0.00 | 0.00 | 64 | 1015.5 |
| 20260508223503 | 78 | 0 | 1.0 | 1.0 | 0.00 | 0.00 | 0.00 | 64 | 1015.4 |
| 20260508223000 | 78 | 1 | 0.0 | 0.0 | 0.00 | 0.00 | 0.00 | 64 | 1015.3 |
| 20260508222458 | 78 | 11 | 1.0 | 2.0 | 0.00 | 0.00 | 0.00 | 64 | 1015.4 |
| 20260508221953 | 79 | 19 | 2.0 | 3.0 | 0.00 | 0.00 | 0.00 | 63 | 1015.4 |
| 20260508221450 | 79 | 340 | 2.0 | 2.0 | 0.00 | 0.00 | 0.00 | 62 | 1015.3 |
| 20260508220946 | 79 | 10 | 1.0 | 2.0 | 0.00 | 0.00 | 0.00 | 63 | 1015.0 |
| 20260508220443 | 79 | 349 | 1.0 | 1.0 | 0.00 | 0.00 | 0.00 | 62 | 1015.1 |
| 20260508215939 | 79 | 358 | 1.0 | 1.0 | 0.00 | 0.00 | 0.00 | 62 | 1015.3 |
| 20260508215436 | 79 | 20 | 1.0 | 1.0 | 0.00 | 0.00 | 0.00 | 62 | 1014.9 |
| 20260508214932 | 79 | 332 | 1.0 | 1.0 | 0.00 | 0.00 | 0.00 | 62 | 1015.0 |
| 20260508214431 | 79 | 80 | 1.0 | 1.0 | 0.00 | 0.00 | 0.00 | 62 | 1015.1 |
| 20260508213926 | 79 | 89 | 2.0 | 2.0 | 0.00 | 0.00 | 0.00 | 61 | 1015.0 |
| 20260508213424 | 79 | 21 | 3.0 | 3.0 | 0.00 | 0.00 | 0.00 | 61 | 1014.9 |
| 20260508212919 | 79 | 2 | 1.0 | 1.0 | 0.00 | 0.00 | 0.00 | 60 | 1014.9 |
| 20260508212416 | 80 | 2 | 3.0 | 3.0 | 0.00 | 0.00 | 0.00 | 60 | 1015.1 |
| 20260508211912 | 79 | 15 | 1.0 | 2.0 | 0.00 | 0.00 | 0.00 | 60 | 1014.7 |
| 20260508211408 | 79 | 351 | 0.0 | 0.0 | 0.00 | 0.00 | 0.00 | 60 | 1014.8 |
| 20260508210906 | 80 | 355 | 1.0 | 1.0 | 0.00 | 0.00 | 0.00 | 60 | 1014.8 |
| 20260508210402 | 80 | 349 | 1.0 | 1.0 | 0.00 | 0.00 | 0.00 | 60 | 1014.7 |
| 20260508205858 | 80 | 3 | 1.0 | 1.0 | 0.00 | 0.00 | 0.00 | 60 | 1014.7 |
| 20260508205355 | 80 | 2 | 0.0 | 0.0 | 0.00 | 0.00 | 0.00 | 60 | 1014.8 |
| 20260508204851 | 80 | 344 | 1.0 | 1.0 | 0.00 | 0.00 | 0.00 | 60 | 1014.7 |
| 20260508204348 | 80 | 357 | 1.0 | 1.0 | 0.00 | 0.00 | 0.00 | 60 | 1014.6 |
| 20260508203844 | 80 | 355 | 3.0 | 3.0 | 0.00 | 0.00 | 0.00 | 59 | 1014.5 |
| 20260508203340 | 80 | 351 | 1.0 | 2.0 | 0.00 | 0.00 | 0.00 | 59 | 1014.5 |
| 20260508202836 | 80 | 346 | 2.0 | 2.0 | 0.00 | 0.00 | 0.00 | 59 | 1014.6 |
| 20260508202334 | 80 | 221 | 3.0 | 5.0 | 0.00 | 0.00 | 0.00 | 59 | 1014.4 |
| 20260508201831 | 80 | 10 | 1.0 | 2.0 | 0.00 | 0.00 | 0.00 | 59 | 1014.4 |
| 20260508201328 | 80 | 337 | 7.0 | 8.0 | 0.00 | 0.00 | 0.00 | 59 | 1014.1 |
| 20260508200824 | 80 | 354 | 6.0 | 7.0 | 0.00 | 0.00 | 0.00 | 59 | 1014.3 |